Location: Audinghen
(50.8518°N, 1.6129°E)
Time: 15:55:34
(UTC+00:00)

Cosmos 2237 Rocket - Pass Details

Date: 07 August 2020
Orbit: 836 x 849 km, 71.0° (Epoch: 18 September)

Event Time Altitude Azimuth Distance (km) Brightness Sun altitude
Rises 00:48:07 0° 330° (NNW) 3,414 6.1 -22.0°
Reaches altitude 10° 00:50:35 10° 332° (NNW) 2,473 5.3 -21.9°
Maximum altitude 00:56:17 77° 59° (ENE) 869 2.3 -21.7°
Enters shadow 00:59:26 27° 141° (SE) 1,555 3.3 -21.5°
